Overview Statistics Trail Chart Weather Telemetry Raw packets
 

This is the latest recevied weather packets stored in our database for station/object KB4MOX. If no packets are shown the sender has not sent any weather packets the latest 10 day(s).

<< 13 14 15 16 17 18 19 >>
Time Temp. Humidity Pressure Rain* Wind** Luminosity Snow
1788527681 25° C 94% 1018.1 hPa 0 mm - 92 W/m² -
1788527377 25° C 94% 1017.9 hPa 0 mm - 79 W/m² -
1788527075 24.44° C 94% 1018.1 hPa 0 mm - 80 W/m² -
1788526770 24.44° C 95% 1017.7 hPa 0 mm - 69 W/m² -
1788526467 24.44° C 95% 1018.1 hPa 0 mm - 82 W/m² -
1788526166 23.89° C 94% 1017.8 hPa 0 mm - 81 W/m² -
1788525863 23.89° C 94% 1017.7 hPa 0 mm - 84 W/m² -
1788525559 23.89° C 94% 1017.9 hPa 0 mm - 75 W/m² -
1788525258 23.33° C 94% 1017.7 hPa 0 mm - 52 W/m² -
1788524954 23.33° C 94% 1017.6 hPa 0 mm - 45 W/m² -
1788524653 23.33° C 94% 1017.7 hPa 0 mm - 28 W/m² -
1788524348 23.33° C 94% 1017.7 hPa 0 mm - 32 W/m² -
1788524045 23.33° C 94% 1017.7 hPa 0 mm - 26 W/m² -
1788523740 23.33° C 94% 1017.8 hPa 0 mm - 22 W/m² -
1788523436 23.33° C 95% 1017.6 hPa 0 mm - 20 W/m² -
1788523132 22.78° C 95% 1017.6 hPa 0 mm - 28 W/m² -
1788522827 22.78° C 95% 1017.5 hPa 0 mm - 35 W/m² -
1788522527 22.78° C 96% 1017.7 hPa 0 mm - 23 W/m² -
1788522221 22.22° C 96% 1017.7 hPa 0 mm - 26 W/m² -
1788521917 22.22° C 96% 1017.6 hPa 0 mm - 21 W/m² -
1788521616 22.22° C 95% 1017.5 hPa 0 mm - 19 W/m² -
1788521311 21.67° C 95% 1017.3 hPa 0 mm - 14 W/m² -
1788521007 21.67° C 95% 1017.4 hPa 0 mm - 10 W/m² -
1788520702 21.67° C 95% 1017.3 hPa 0 mm - 6 W/m² -
1788520398 21.67° C 95% 1017.4 hPa 0 mm - 4 W/m² -

* Rain latest hour (hover to see other rain measurements)
** Current wind speed in m/s (hover to see current wind gust speed)